QTR1J OTHH-EGLL

Flight info

Callsign QTR1J
Flight time N/A
Altitude 28000
Route DATRI L564 BAT/N0511F290 L564 MIGMA/N0500F280 M550 MEVDO Y511 ITRUX/N0496F340 Y511 PMA Z712 WEJ L677 DARAX/N0484F360 L677 CVO L617 NOZ L551 ANTAR DCT NEVRA DCT TALAS DCT ENFAR DCT AKIKA DCT SOLGU/N0471F380 DCT NAVSU DCT NEMEK DCT MODSA DCT BABEG DCT LIRSU DCT DENUT L608 LOGAN
Aircraft B77L/H-SDE1E2E3FGHIJ2J3J4J5M1RWXY/LB1D1

Departure

Time 2026-05-04 15:58
Airport Hamad International Airport (OTHH)

Arrival

Time N/A
Airport London Heathrow Airport (EGLL)
Time Latitude Longitude Altitude Speed Heading
2026-05-04 15:28 25.26462 51.60710 28 ft 0 kts 203°
2026-05-04 15:45 25.26478 51.60718 26 ft 4 kts 203°
2026-05-04 15:46 25.26503 51.60729 30 ft 4 kts 209°
2026-05-04 15:46 25.26524 51.60747 30 ft 4 kts 233°
2026-05-04 15:46 25.26535 51.60772 29 ft 4 kts 273°
2026-05-04 15:46 25.26532 51.60787 30 ft 0 kts 293°
2026-05-04 15:50 25.26533 51.60786 30 ft 1 kts 293°
2026-05-04 15:51 25.26547 51.60749 30 ft 6 kts 293°
2026-05-04 15:51 25.26563 51.60709 27 ft 6 kts 293°
2026-05-04 15:51 25.26579 51.60667 30 ft 7 kts 293°
2026-05-04 15:51 25.26586 51.60603 27 ft 9 kts 261°
2026-05-04 15:52 25.26572 51.60559 29 ft 9 kts 240°
2026-05-04 15:52 25.26545 51.60530 29 ft 0 kts 221°
2026-05-04 15:52 25.26544 51.60530 28 ft 1 kts 223°
2026-05-04 15:52 25.26537 51.60490 27 ft 8 kts 258°
2026-05-04 15:53 25.26502 51.60443 28 ft 9 kts 195°
2026-05-04 15:53 25.26425 51.60463 27 ft 14 kts 159°
2026-05-04 15:53 25.26333 51.60502 27 ft 14 kts 159°
2026-05-04 15:53 25.26238 51.60544 25 ft 10 kts 160°
2026-05-04 15:54 25.26186 51.60565 29 ft 0 kts 158°
2026-05-04 15:54 25.26185 51.60565 29 ft 0 kts 158°
2026-05-04 15:54 25.26163 51.60575 30 ft 8 kts 158°
2026-05-04 15:54 25.26078 51.60613 29 ft 16 kts 158°
2026-05-04 15:55 25.25977 51.60661 29 ft 16 kts 157°
2026-05-04 15:55 25.25874 51.60706 26 ft 16 kts 160°
2026-05-04 15:55 25.25771 51.60750 28 ft 16 kts 158°
2026-05-04 15:55 25.25671 51.60783 26 ft 12 kts 185°
2026-05-04 15:56 25.25616 51.60719 28 ft 12 kts 246°
2026-05-04 15:56 25.25584 51.60632 28 ft 12 kts 248°
2026-05-04 15:56 25.25593 51.60539 26 ft 13 kts 295°
2026-05-04 15:56 25.25656 51.60489 27 ft 0 kts 338°
2026-05-04 15:57 25.25699 51.60469 27 ft 22 kts 338°
2026-05-04 15:57 25.26031 51.60322 27 ft 87 kts 338°
2026-05-04 15:57 25.26803 51.59985 26 ft 148 kts 338°
2026-05-04 15:57 25.27903 51.59497 144 ft 179 kts 337°
2026-05-04 15:58 25.29076 51.58942 577 ft 189 kts 338°
2026-05-04 15:58 25.30262 51.58411 1342 ft 175 kts 339°
2026-05-04 15:58 25.31429 51.57914 1854 ft 189 kts 340°
2026-05-04 15:58 25.32730 51.57371 2098 ft 210 kts 340°
2026-05-04 15:59 25.34157 51.56759 2316 ft 235 kts 341°
2026-05-04 15:59 25.35738 51.56071 2702 ft 250 kts 340°
2026-05-04 15:59 25.37366 51.55346 3463 ft 253 kts 339°
2026-05-04 15:59 25.38999 51.54611 4145 ft 253 kts 339°
2026-05-04 16:00 25.40634 51.53877 4968 ft 254 kts 338°
2026-05-04 16:00 25.42279 51.53141 5737 ft 257 kts 338°
2026-05-04 16:00 25.43947 51.52397 6480 ft 260 kts 338°
2026-05-04 16:00 25.45644 51.51642 6941 ft 263 kts 336°
2026-05-04 16:01 25.47191 51.50551 7001 ft 270 kts 313°
2026-05-04 16:01 25.48131 51.48756 7027 ft 274 kts 290°
2026-05-04 16:01 25.48417 51.46663 7016 ft 277 kts 272°
2026-05-04 16:01 25.48318 51.44533 7008 ft 278 kts 270°
2026-05-04 16:02 25.48207 51.42398 7266 ft 277 kts 270°
2026-05-04 16:02 25.48099 51.40268 7987 ft 279 kts 270°
2026-05-04 16:02 25.47903 51.35983 9423 ft 282 kts 270°
2026-05-04 16:03 25.47819 51.33801 10088 ft 285 kts 270°
2026-05-04 16:03 25.47729 51.31599 10694 ft 288 kts 269°
2026-05-04 16:03 25.47567 51.29386 11296 ft 290 kts 259°
2026-05-04 16:03 25.46684 51.27352 11829 ft 301 kts 232°
2026-05-04 16:04 25.45027 51.25911 12512 ft 307 kts 207°
2026-05-04 16:04 25.40769 51.25308 13705 ft 318 kts 181°
2026-05-04 16:04 25.38546 51.25368 14288 ft 321 kts 181°
2026-05-04 16:05 25.36322 51.25353 14893 ft 317 kts 192°
2026-05-04 16:05 25.34329 51.24472 15350 ft 314 kts 221°
2026-05-04 16:05 25.31967 51.16702 17415 ft 316 kts 267°
2026-05-04 16:06 25.31794 51.06661 19651 ft 327 kts 268°
2026-05-04 16:06 25.31026 50.79063 25336 ft 347 kts 267°
2026-05-04 16:07 25.30554 50.64285 27290 ft 382 kts 267°
2026-05-04 16:07 25.29185 50.23540 27753 ft 472 kts 267°
2026-05-04 16:08 25.28672 50.09059 27815 ft 470 kts 267°
2026-05-04 16:08 25.27052 49.65710 27918 ft 470 kts 266°
2026-05-04 16:09 25.26089 49.41585 27783 ft 472 kts 266°
2026-05-04 16:09 25.24683 49.07977 27815 ft 470 kts 266°
2026-05-04 16:10 25.23631 48.83930 27808 ft 470 kts 266°
2026-05-04 16:11 25.21335 48.34309 27821 ft 468 kts 266°
2026-05-04 16:11 25.20639 48.19928 27832 ft 467 kts 266°
2026-05-04 16:12 25.18476 47.76954 31250 ft 460 kts 265°
2026-05-04 16:12 25.16253 47.35244 34935 ft 457 kts 264°
2026-05-04 16:13 25.14707 47.07384 34852 ft 441 kts 264°
2026-05-04 16:13 25.13187 46.80974 34920 ft 434 kts 264°
2026-05-04 16:14 25.11585 46.53814 34913 ft 447 kts 264°
2026-05-04 16:14 25.09950 46.26934 34911 ft 431 kts 264°
2026-05-04 16:15 25.07422 45.86945 34979 ft 445 kts 264°
2026-05-04 16:16 25.05662 45.59977 34836 ft 428 kts 263°
2026-05-04 16:16 25.02994 45.20575 34830 ft 441 kts 263°
2026-05-04 16:17 25.01140 44.93961 34829 ft 427 kts 263°
2026-05-04 16:18 24.99232 44.67343 34894 ft 424 kts 263°
2026-05-04 16:19 24.98522 44.57590 34903 ft 435 kts 263°
2026-05-04 16:19 24.97948 44.49781 34881 ft 437 kts 263°
2026-05-04 16:20 24.93298 43.88271 34909 ft 432 kts 263°
2026-05-04 16:22 24.88055 43.22595 34951 ft 428 kts 262°
2026-05-04 16:23 24.81828 42.48827 34896 ft 427 kts 262°
2026-05-04 16:25 24.74872 41.71055 34924 ft 424 kts 262°
2026-05-04 16:26 24.61794 40.35711 34908 ft 422 kts 261°
2026-05-04 16:28 24.57284 39.71752 34934 ft 437 kts 290°
2026-05-04 16:28 24.86697 39.45678 34926 ft 459 kts 314°
2026-05-04 16:29 25.26753 39.09988 34915 ft 439 kts 295°
2026-05-04 16:31 25.83060 38.12924 34809 ft 443 kts 295°
2026-05-04 16:31 26.06746 37.39755 35124 ft 432 kts 274°
2026-05-04 16:32 26.16992 36.61201 34820 ft 415 kts 273°
2026-05-04 16:33 26.45190 36.18599 34889 ft 438 kts 304°
2026-05-04 16:33 26.79460 35.78770 35023 ft 452 kts 306°
2026-05-04 16:34 27.14589 35.37605 34921 ft 454 kts 306°
2026-05-04 16:34 27.31849 35.17241 34862 ft 444 kts 306°
2026-05-04 16:35 27.84891 34.58509 34971 ft 455 kts 309°
2026-05-04 16:35 28.34122 33.95326 35075 ft 439 kts 302°
2026-05-04 16:36 28.80268 33.30581 34854 ft 429 kts 302°
2026-05-04 16:37 29.10068 32.88248 35090 ft 436 kts 302°
2026-05-04 16:37 29.25397 32.66322 35099 ft 444 kts 302°
2026-05-04 16:37 29.33963 32.53977 35066 ft 433 kts 301°
2026-05-04 16:38 29.37654 32.48590 35055 ft 428 kts 301°
2026-05-04 16:39 29.46835 32.35175 35056 ft 429 kts 301°
2026-05-04 16:40 29.54232 32.24353 35068 ft 431 kts 301°
2026-05-04 16:41 29.63464 32.10815 35062 ft 431 kts 301°
2026-05-04 16:43 29.72660 31.97282 35071 ft 430 kts 301°
2026-05-04 16:43 29.78190 31.89123 35071 ft 430 kts 301°
2026-05-04 16:45 29.88915 31.72648 35057 ft 428 kts 300°
2026-05-04 16:46 29.97769 31.58929 35076 ft 427 kts 300°
2026-05-04 16:47 30.04881 31.47883 35083 ft 428 kts 300°
2026-05-04 16:48 30.12384 31.37138 35073 ft 436 kts 309°
2026-05-04 16:49 30.21321 31.27655 35068 ft 436 kts 310°
2026-05-04 16:50 30.30174 31.18168 35065 ft 434 kts 310°
2026-05-04 16:51 30.36787 31.11057 35065 ft 432 kts 310°
2026-05-04 16:52 30.45598 31.01563 35068 ft 431 kts 310°
2026-05-04 16:53 30.52202 30.94430 35084 ft 433 kts 310°
2026-05-04 16:54 30.61003 30.84905 35073 ft 433 kts 310°
2026-05-04 16:55 30.74190 30.70586 35082 ft 433 kts 310°
2026-05-04 16:56 30.85179 30.58607 35096 ft 434 kts 310°
2026-05-04 16:57 30.91771 30.51404 35084 ft 436 kts 310°
2026-05-04 16:58 31.00621 30.41713 35092 ft 437 kts 310°
2026-05-04 17:00 31.11926 30.25596 35103 ft 424 kts 289°
2026-05-04 17:01 31.16405 30.09218 35114 ft 425 kts 286°
2026-05-04 17:02 31.21097 29.96640 35112 ft 435 kts 307°
2026-05-04 17:02 31.25786 29.92051 35102 ft 449 kts 325°
2026-05-04 17:03 31.28554 29.90342 35106 ft 451 kts 326°
2026-05-04 17:03 31.36950 29.85274 35103 ft 453 kts 326°
2026-05-04 17:04 31.76636 29.60435 34600 ft 428 kts 325°
2026-05-04 17:05 32.59593 29.07463 35344 ft 437 kts 324°
2026-05-04 17:05 33.11954 28.73478 35070 ft 434 kts 324°
2026-05-04 17:06 33.74428 28.32282 35153 ft 434 kts 326°
2026-05-04 17:07 34.28677 27.89954 35037 ft 433 kts 322°
2026-05-04 17:07 34.62534 27.62624 35009 ft 422 kts 322°
2026-05-04 17:07 35.01461 27.30794 35136 ft 433 kts 323°
2026-05-04 17:08 35.41859 26.97481 35191 ft 444 kts 323°
2026-05-04 17:08 36.24177 26.28189 35019 ft 448 kts 325°
2026-05-04 17:09 37.06051 25.57516 35136 ft 448 kts 326°
2026-05-04 17:09 37.35493 25.31631 35149 ft 451 kts 326°
2026-05-04 17:10 37.85277 24.87286 35101 ft 452 kts 325°
2026-05-04 17:11 37.93877 24.79550 35105 ft 452 kts 325°
2026-05-04 17:12 38.09200 24.65712 35110 ft 453 kts 325°
2026-05-04 17:13 38.35118 24.42906 35114 ft 454 kts 327°
2026-05-04 17:14 38.56047 24.24723 35080 ft 456 kts 326°
2026-05-04 17:15 38.65196 24.16730 35123 ft 457 kts 326°
2026-05-04 17:16 38.75752 24.07479 35125 ft 466 kts 326°
2026-05-04 17:17 38.86519 23.98006 35109 ft 470 kts 326°
2026-05-04 17:18 38.97246 23.88533 35024 ft 467 kts 326°
2026-05-04 17:18 39.02620 23.83774 34376 ft 472 kts 326°
2026-05-04 17:19 39.13041 23.74522 31895 ft 497 kts 326°
2026-05-04 17:19 39.35615 23.54356 31066 ft 500 kts 326°
2026-05-04 17:20 39.58841 23.33440 30985 ft 507 kts 326°
2026-05-04 17:20 39.81908 23.12494 31093 ft 508 kts 326°
2026-05-04 17:20 39.93474 23.01924 31090 ft 507 kts 326°
2026-05-04 17:21 40.39433 22.59480 31040 ft 497 kts 325°
2026-05-04 17:22 40.50786 22.48883 32234 ft 497 kts 325°
2026-05-04 17:22 40.61490 22.38844 35585 ft 451 kts 326°
2026-05-04 17:23 40.92648 22.09422 37066 ft 461 kts 326°
2026-05-04 17:23 41.02912 21.99652 37075 ft 445 kts 325°
2026-05-04 17:23 41.19078 21.75199 37162 ft 451 kts 306°
2026-05-04 17:24 41.26154 21.61182 37087 ft 461 kts 307°
2026-05-04 17:25 41.54396 21.04995 37116 ft 450 kts 306°
2026-05-04 17:26 41.83385 20.49541 37066 ft 461 kts 320°
2026-05-04 17:27 42.09837 20.17856 37096 ft 460 kts 319°
2026-05-04 17:28 42.19338 20.06327 37098 ft 457 kts 319°
2026-05-04 17:29 42.33426 19.89144 37097 ft 456 kts 319°
2026-05-04 17:31 42.45174 19.74728 37098 ft 456 kts 319°
2026-05-04 17:32 42.56886 19.60299 37093 ft 457 kts 319°
2026-05-04 17:33 42.64078 19.51757 36818 ft 457 kts 319°
2026-05-04 17:33 42.66481 19.48920 36905 ft 457 kts 319°
2026-05-04 17:34 42.73520 19.40554 37200 ft 442 kts 321°
2026-05-04 17:34 42.76040 19.37547 37225 ft 446 kts 321°
2026-05-04 17:35 43.23330 18.80423 37122 ft 448 kts 320°
2026-05-04 17:36 43.39272 18.60884 37099 ft 461 kts 320°
2026-05-04 17:36 43.75729 18.15658 37035 ft 460 kts 319°
2026-05-04 17:37 43.97201 17.88661 37057 ft 452 kts 319°
2026-05-04 17:37 44.01854 17.82768 37097 ft 453 kts 319°
2026-05-04 17:38 44.17228 17.61905 36983 ft 463 kts 310°
2026-05-04 17:38 44.24171 17.49639 37102 ft 462 kts 310°
2026-05-04 17:39 44.30200 17.39061 37091 ft 464 kts 310°
2026-05-04 17:39 44.34221 17.32007 37103 ft 464 kts 310°
2026-05-04 17:40 44.38211 17.24989 37081 ft 463 kts 309°
2026-05-04 17:40 44.42206 17.17942 37091 ft 462 kts 309°
2026-05-04 17:41 44.46198 17.10884 37074 ft 461 kts 309°
2026-05-04 17:41 44.50182 17.03823 37089 ft 461 kts 309°
2026-05-04 17:42 44.54137 16.96799 37081 ft 461 kts 309°
2026-05-04 17:42 44.58164 16.89801 37084 ft 460 kts 313°
2026-05-04 17:43 44.62502 16.83192 37077 ft 460 kts 314°
2026-05-04 17:43 44.66874 16.76604 37087 ft 461 kts 313°
2026-05-04 17:44 44.71235 16.69984 37070 ft 462 kts 313°
2026-05-04 17:44 44.75569 16.63362 37076 ft 462 kts 313°
2026-05-04 17:45 44.79925 16.56682 37055 ft 463 kts 313°
2026-05-04 17:45 44.84287 16.49976 37066 ft 464 kts 312°
2026-05-04 17:46 44.88652 16.43251 37070 ft 464 kts 312°
2026-05-04 17:46 44.92988 16.36556 37064 ft 465 kts 312°
2026-05-04 17:47 44.97351 16.29803 37058 ft 465 kts 312°
2026-05-04 17:47 45.01716 16.23029 37044 ft 466 kts 312°
2026-05-04 17:48 45.06081 16.16241 37050 ft 466 kts 311°
2026-05-04 17:48 45.10416 16.09483 37050 ft 466 kts 311°
2026-05-04 17:49 45.14786 16.02653 37046 ft 467 kts 311°
2026-05-04 17:49 45.19141 15.95831 37045 ft 467 kts 311°
2026-05-04 17:50 45.23494 15.88996 37039 ft 466 kts 311°
2026-05-04 17:50 45.27839 15.82156 37033 ft 466 kts 311°
2026-05-04 17:51 45.32173 15.75316 37155 ft 470 kts 311°
2026-05-04 17:51 45.36564 15.68369 37047 ft 470 kts 311°
2026-05-04 17:52 45.40908 15.61481 37030 ft 465 kts 310°
2026-05-04 17:52 45.45203 15.54654 37032 ft 465 kts 310°
2026-05-04 17:53 45.49510 15.47791 37037 ft 464 kts 310°
2026-05-04 17:53 45.53815 15.40913 36570 ft 466 kts 310°
2026-05-04 17:54 45.55249 15.38620 36234 ft 469 kts 310°
2026-05-04 17:54 45.58160 15.33957 36035 ft 471 kts 310°
2026-05-04 17:54 45.62680 15.27127 36033 ft 476 kts 314°
2026-05-04 17:55 45.67422 15.20504 36025 ft 476 kts 314°
2026-05-04 17:55 45.72135 15.13950 36032 ft 475 kts 314°
2026-05-04 17:56 45.76864 15.07314 36045 ft 475 kts 314°
2026-05-04 17:56 45.81567 15.00672 36045 ft 474 kts 314°
2026-05-04 17:57 45.85473 14.95136 36039 ft 474 kts 314°
2026-05-04 17:57 45.90928 14.87387 36042 ft 474 kts 314°
2026-05-04 17:58 45.94852 14.81800 36047 ft 474 kts 314°
2026-05-04 17:58 45.99501 14.75166 36042 ft 474 kts 313°
2026-05-04 17:59 46.04187 14.68466 36059 ft 474 kts 313°
2026-05-04 18:00 46.11211 14.58388 36052 ft 475 kts 313°